• In Italy
  • List of Countries
  • For 7 days
  • Water Temperature
  • Satellite Maps
  • Weather Map
  • Weather Widgets
  • user-avatar
    Login

    Hourly Weather Hrazdan

    Today, 21 September, Friday

    Time Temperature Precipitation Wind Pressure Humidity
    00:00 +10°C° 0.2 mm 2 mps 616 mmHg 88%
    01:00 +10°C° 0.1 mm 2 mps 616 mmHg 89%
    02:00 +11°C° 0.1 mm 1 mps 616 mmHg 89%
    03:00 +11°C° 0.1 mm 1 mps 616 mmHg 90%
    04:00 +11°C° 0.1 mm 1 mps 616 mmHg 91%
    05:00 +11°C° 0.1 mm 1 mps 616 mmHg 91%
    06:00 +11°C° 0.1 mm 1 mps 616 mmHg 92%
    07:00 +12°C° 0 mm 1 mps 616 mmHg 85%
    08:00 +13°C° 0 mm 1 mps 616 mmHg 78%
    09:00 +15°C° 0 mm 1 mps 617 mmHg 72%
    10:00 +16°C° 0.1 mm 1 mps 617 mmHg 67%
    11:00 +17°C° 0.1 mm 2 mps 617 mmHg 62%
    12:00 +18°C° 0.1 mm 2 mps 617 mmHg 57%
    13:00 +19°C° 0.6 mm 2 mps 617 mmHg 54%
    14:00 +19°C° 0.6 mm 2 mps 617 mmHg 52%
    15:00 +20°C° 0.6 mm 2 mps 617 mmHg 50%
    16:00 +18°C° 0.4 mm 2 mps 616 mmHg 57%
    17:00 +16°C° 0.4 mm 1 mps 616 mmHg 63%
    18:00 +15°C° 0.4 mm 1 mps 615 mmHg 70%
    19:00 +14°C° 0.1 mm 1 mps 615 mmHg 74%
    20:00 +13°C° 0.1 mm 1 mps 615 mmHg 78%
    21:00 +13°C° 0.1 mm 2 mps 615 mmHg 82%
    22:00 +12°C° 0.1 mm 1 mps 615 mmHg 83%
    23:00 +12°C° 0.1 mm 1 mps 615 mmHg 84%

    Tomorrow, 22 September, Saturday

    Time Temperature Precipitation Wind Pressure Humidity
    00:00 +12°C° 0.1 mm 1 mps 615 mmHg 85%
    01:00 +11°C° 0.1 mm 1 mps 615 mmHg 86%
    02:00 +11°C° 0.1 mm 1 mps 615 mmHg 87%
    03:00 +11°C° 0.1 mm 1 mps 615 mmHg 87%
    04:00 +11°C° 0.2 mm 1 mps 615 mmHg 87%
    05:00 +11°C° 0.2 mm 1 mps 615 mmHg 87%
    06:00 +11°C° 0.2 mm 1 mps 615 mmHg 87%
    07:00 +12°C° 0.1 mm 1 mps 616 mmHg 79%
    08:00 +14°C° 0.1 mm 1 mps 617 mmHg 72%
    09:00 +16°C° 0.1 mm 2 mps 617 mmHg 64%
    10:00 +16°C° 0.5 mm 2 mps 617 mmHg 60%
    11:00 +17°C° 0.5 mm 2 mps 617 mmHg 56%
    12:00 +18°C° 0.5 mm 2 mps 617 mmHg 52%
    13:00 +18°C° 0.9 mm 2 mps 617 mmHg 52%
    14:00 +19°C° 0.9 mm 2 mps 617 mmHg 53%
    15:00 +19°C° 0.9 mm 2 mps 617 mmHg 53%
    16:00 +17°C° 0.6 mm 2 mps 616 mmHg 60%
    17:00 +16°C° 0.6 mm 2 mps 616 mmHg 67%
    18:00 +14°C° 0.6 mm 1 mps 615 mmHg 74%
    19:00 +14°C° 0.7 mm 1 mps 615 mmHg 77%
    20:00 +14°C° 0.7 mm 1 mps 616 mmHg 79%
    21:00 +13°C° 0.7 mm 2 mps 616 mmHg 82%
    22:00 +13°C° 0.2 mm 1 mps 616 mmHg 83%
    23:00 +13°C° 0.2 mm 1 mps 616 mmHg 84%

    Day after tomorrow, 23 September, Sunday

    Time Temperature Precipitation Wind Pressure Humidity
    00:00 +12°C° 0.2 mm 1 mps 616 mmHg 85%
    01:00 +12°C° 0.2 mm 1 mps 615 mmHg 86%
    02:00 +12°C° 0.2 mm 1 mps 615 mmHg 87%
    03:00 +11°C° 0.2 mm 1 mps 615 mmHg 87%
    04:00 +11°C° 0 mm 1 mps 615 mmHg 88%
    05:00 +11°C° 0 mm 1 mps 615 mmHg 88%
    06:00 +11°C° 0 mm 1 mps 615 mmHg 89%
    07:00 +12°C° 0 mm 1 mps 615 mmHg 80%
    08:00 +14°C° 0 mm 1 mps 616 mmHg 72%
    09:00 +16°C° 0 mm 1 mps 616 mmHg 63%
    10:00 +18°C° 0.1 mm 1 mps 617 mmHg 57%
    11:00 +18°C° 0.1 mm 2 mps 617 mmHg 52%
    12:00 +20°C° 0.1 mm 2 mps 617 mmHg 46%
    13:00 +20°C° 0.3 mm 2 mps 617 mmHg 44%
    14:00 +20°C° 0.3 mm 2 mps 616 mmHg 42%
    15:00 +20°C° 0.3 mm 2 mps 616 mmHg 41%
    16:00 +18°C° 0.5 mm 2 mps 615 mmHg 48%
    17:00 +16°C° 0.5 mm 2 mps 615 mmHg 56%
    18:00 +15°C° 0.5 mm 1 mps 614 mmHg 64%
    19:00 +14°C° 0.4 mm 1 mps 614 mmHg 67%
    20:00 +13°C° 0.4 mm 1 mps 615 mmHg 71%
    21:00 +13°C° 0.4 mm 2 mps 615 mmHg 74%
    22:00 +12°C° 0 mm 1 mps 615 mmHg 77%
    23:00 +12°C° 0 mm 1 mps 615 mmHg 80%

    24 September, Monday

    Time Temperature Precipitation Wind Pressure Humidity
    00:00 +11°C° 0 mm 1 mps 615 mmHg 82%
    01:00 +11°C° 0 mm 1 mps 614 mmHg 83%
    02:00 +11°C° 0 mm 1 mps 614 mmHg 84%
    03:00 +10°C° 0 mm 1 mps 614 mmHg 85%
    04:00 +10°C° 0 mm 1 mps 614 mmHg 83%
    05:00 +10°C° 0 mm 1 mps 614 mmHg 81%
    06:00 +9°C° 0 mm 1 mps 614 mmHg 79%
    07:00 +12°C° 0 mm 2 mps 615 mmHg 68%
    08:00 +14°C° 0 mm 2 mps 615 mmHg 57%
    09:00 +16°C° 0 mm 2 mps 616 mmHg 45%
    10:00 +17°C° 0 mm 2 mps 616 mmHg 43%
    11:00 +18°C° 0 mm 3 mps 616 mmHg 40%
    12:00 +19°C° 0 mm 3 mps 616 mmHg 37%
    13:00 +19°C° 0 mm 3 mps 616 mmHg 38%
    14:00 +19°C° 0 mm 2 mps 616 mmHg 38%
    15:00 +19°C° 0 mm 2 mps 615 mmHg 39%
    16:00 +18°C° 0 mm 2 mps 615 mmHg 44%
    17:00 +16°C° 0 mm 2 mps 614 mmHg 50%
    18:00 +14°C° 0 mm 1 mps 614 mmHg 56%
    19:00 +13°C° 0 mm 1 mps 614 mmHg 60%
    20:00 +12°C° 0 mm 1 mps 614 mmHg 65%
    21:00 +11°C° 0 mm 1 mps 614 mmHg 70%
    22:00 +11°C° 0 mm 1 mps 614 mmHg 71%
    23:00 +11°C° 0 mm 1 mps 613 mmHg 73%

    25 September, Tuesday

    Time Temperature Precipitation Wind Pressure Humidity
    00:00 +10°C° 0 mm 1 mps 613 mmHg 74%
    01:00 +10°C° 0 mm 1 mps 613 mmHg 73%
    02:00 +10°C° 0 mm 1 mps 613 mmHg 73%
    03:00 +10°C° 0 mm 1 mps 613 mmHg 72%
    04:00 +9°C° 0 mm 1 mps 613 mmHg 71%
    05:00 +9°C° 0 mm 1 mps 613 mmHg 70%
    06:00 +9°C° 0 mm 1 mps 612 mmHg 68%
    07:00 +11°C° 0 mm 1 mps 613 mmHg 60%
    08:00 +14°C° 0 mm 1 mps 614 mmHg 52%
    09:00 +16°C° 0 mm 2 mps 615 mmHg 43%
    10:00 +18°C° 0 mm 2 mps 615 mmHg 40%
    11:00 +19°C° 0 mm 2 mps 615 mmHg 36%
    12:00 +21°C° 0 mm 2 mps 615 mmHg 33%
    13:00 +21°C° 0 mm 2 mps 615 mmHg 32%
    14:00 +21°C° 0 mm 2 mps 615 mmHg 31%
    15:00 +23°C° 0 mm 2 mps 614 mmHg 30%
    16:00 +19°C° 0 mm 2 mps 614 mmHg 37%
    17:00 +18°C° 0 mm 1 mps 613 mmHg 43%
    18:00 +15°C° 0 mm 1 mps 612 mmHg 50%
    19:00 +14°C° 0 mm 1 mps 613 mmHg 54%
    20:00 +14°C° 0 mm 1 mps 613 mmHg 59%
    21:00 +13°C° 0 mm 2 mps 613 mmHg 63%
    22:00 +13°C° 0 mm 2 mps 613 mmHg 66%
    23:00 +12°C° 0 mm 1 mps 613 mmHg 69%

    26 September, Wednesday

    Time Temperature Precipitation Wind Pressure Humidity
    00:00 +12°C° 0 mm 1 mps 613 mmHg 71%
    01:00 +12°C° 0 mm 1 mps 613 mmHg 73%
    02:00 +11°C° 0 mm 1 mps 613 mmHg 75%
    03:00 +11°C° 0 mm 1 mps 613 mmHg 77%
    04:00 +11°C° 0 mm 1 mps 613 mmHg 78%
    05:00 +10°C° 0 mm 1 mps 613 mmHg 79%
    06:00 +10°C° 0 mm 1 mps 613 mmHg 80%
    07:00 +12°C° 0 mm 1 mps 614 mmHg 69%
    08:00 +15°C° 0 mm 1 mps 615 mmHg 59%
    09:00 +17°C° 0 mm 2 mps 615 mmHg 48%
    10:00 +18°C° 0 mm 2 mps 616 mmHg 44%
    11:00 +19°C° 0 mm 2 mps 616 mmHg 40%
    12:00 +21°C° 0 mm 2 mps 616 mmHg 36%
    13:00 +21°C° 0 mm 2 mps 616 mmHg 36%
    14:00 +21°C° 0 mm 2 mps 615 mmHg 36%
    15:00 +21°C° 0 mm 2 mps 615 mmHg 36%
    16:00 +19°C° 0.2 mm 2 mps 615 mmHg 45%
    17:00 +17°C° 0.2 mm 2 mps 614 mmHg 54%
    18:00 +15°C° 0.2 mm 2 mps 613 mmHg 63%
    19:00 +14°C° 0.3 mm 2 mps 614 mmHg 69%
    20:00 +13°C° 0.3 mm 2 mps 614 mmHg 75%
    21:00 +13°C° 0.3 mm 2 mps 614 mmHg 81%
    22:00 +13°C° 0 mm 2 mps 614 mmHg 82%
    23:00 +12°C° 0 mm 2 mps 614 mmHg 83%
    Show more